Station 41038 - Wrightsville Beach Nearshore, NC (ILM2) Image indicating link to RSS feed of recent meteorological observations for station 41038


Conditions at 41038 as of
(6:08 pm EDT)
2208 GMT on 06/21/2024:
     

Click on the graph icon in the table below to see a time series plot of the last five days of that observation.

5-day plot - Wind Direction Wind Direction (WDIR): E ( 80 deg true )
5-day plot - Wind Speed Wind Speed (WSPD): 5.8 kts
5-day plot - Wind Gust Wind Gust (GST): 11.7 kts
5-day plot - Atmospheric Pressure Atmospheric Pressure (PRES):30.15 in
5-day plot - Air Temperature Air Temperature (ATMP): 79.7 °F
5-day plot - Water Temperature Water Temperature (WTMP): 79.5 °F
5-day plot - Dew Point Dew Point (DEWP): 75.2 °F
5-day plot - Heat Index Heat Index (HEAT): 84.4 °F
5-day plot - Wind Speed at 10 Meters Wind Speed at 10 meters (WSPD10M): 7.8 kts
5-day plot - Wind Speed at 20 Meters Wind Speed at 20 meters (WSPD20M): 7.8 kts
5-day plot -  Wind Speed, Wind Gust and Atmospheric Pressure Combined plot of Wind Speed, Gust, and Air Pressure
Previous observations
TIME
(EDT)
5-day plot - Wind Direction
WDIR
 
5-day plot - Wind Speed
WSPD
kts
5-day plot - Wind Gust
GST
kts
5-day plot - Wave Height
WVHT
ft
5-day plot - Dominant Wave Period
DPD
sec
5-day plot - Average Wave Period
APD
sec
5-day plot - Mean Wave Direction
MWD
 
5-day plot - Atmospheric Pressure
PRES
in
5-day plot - Pressure Tendency
PTDY
in
5-day plot - Air Temperature
ATMP
°F
5-day plot - Water Temperature
WTMP
°F
5-day plot - Dew Point
DEWP
°F
5-day plot - Salinity
SAL
psu
5-day plot - Visibility
VIS
nmi
5-day plot - Tide (above MLLW)
TIDE
ft
2024-06-21 05:08 pm NE 9.7 11.7----30.17- 78.4 79.5 74.5---
2024-06-21 04:08 pmNNE 9.7 13.6----30.14- 77.9 79.5 74.1---
2024-06-21 03:08 pm NE 7.8 11.7----30.22- 77.2 79.3 73.2---
2024-06-21 02:08 pm E 7.8 13.6----30.11- 77.2 79.3 72.1---
2024-06-21 01:08 pm NE 7.8 11.7----30.23- 77.5 79.2 73.0---
2024-06-21 12:08 pmENE 7.8 11.7----30.23- 76.8 79.2 72.7---
2024-06-21 11:08 amENE 11.7 15.5----30.22- 77.4 79.2 72.7---
2024-06-21 10:08 amENE 11.7 17.5----30.22- 78.3 79.0 72.5---
2024-06-21 09:08 amENE 11.7 15.5----30.26- 77.9 79.0 72.0---
2024-06-21 08:08 am E 11.7 15.5----30.21- 78.6 79.0 71.6---
2024-06-21 07:08 am E 11.7 15.5----30.21- 78.3 79.0 70.7---
2024-06-21 06:08 am E 11.7 17.5----30.21- 77.9 79.0 70.0---
2024-06-21 05:08 am E 11.7 17.5----30.20- 77.9 79.0 69.8---
2024-06-21 04:08 am E 11.7 15.5----30.21- 78.1 79.0 68.5---
2024-06-21 03:08 am E 11.7 17.5----30.22- 78.1 79.0 67.8---
2024-06-21 02:08 am E 13.6 17.5----30.24- 78.3 79.2 67.5---
2024-06-21 01:08 am E 13.6 17.5----30.24- 78.1 79.2 68.2---
2024-06-21 12:08 am E 13.6 19.4----30.25- 78.4 79.2 68.4---
2024-06-20 11:08 pm E 11.7 17.5----30.26- 78.6 79.2 67.6---
2024-06-20 10:08 pm E 11.7 17.5----30.26- 78.4 79.2 68.5---
2024-06-20 09:08 pm E 11.7 19.4----30.25- 78.8 79.2 68.9---
2024-06-20 08:08 pm E 11.7 15.5----30.23- 78.8 79.2 68.0---
2024-06-20 07:08 pm E 11.7 15.5----30.24- 78.8 79.3 67.6---